{"data":{"norad_id":52835,"epoch":"2026-05-24T23:59:41.886240Z","epoch_age_seconds":70942,"freshness":"FRESH","line1":"1 52835U 22062F   26144.99979035  .00000009  00000+0  18690-4 0  9999","line2":"2 52835  53.2148  51.5514 0002352 105.8085 254.3167 15.08836231217306","mean_motion":15.08836231,"eccentricity":0.0002352,"inclination_deg":53.2148,"raan_deg":51.5514,"arg_perigee_deg":105.8085,"mean_anomaly_deg":254.3167,"bstar":1.869e-5,"rev_number":21730,"period_min":95.437793076166,"perigee_km":538.1278211362,"apogee_km":541.38199749034,"semimajor_km":6917.8919093133,"source":"CELESTRAK","updated_at":"2026-05-25T13:38:17.241203Z"}}